TimeEST,TemperatureF,Dew PointF,Humidity,Sea Level PressureIn,VisibilityMPH,Wind Direction,Wind SpeedMPH,Gust SpeedMPH,PrecipitationIn,Events,Conditions,WindDirDegrees,DateUTC
12:51 AM,53.1,48.9,86,29.95,9.0,NNE,9.2,-,0.02,Rain,Light Rain,30,2012-11-05 05:51:00
1:51 AM,52.0,46.0,80,29.94,10.0,NE,10.4,17.3,0.00,,Overcast,40,2012-11-05 06:51:00
2:51 AM,52.0,45.0,77,29.95,10.0,NNE,8.1,-,N/A,,Overcast,20,2012-11-05 07:51:00
3:51 AM,52.0,44.1,74,29.95,10.0,NNE,9.2,19.6,N/A,,Overcast,20,2012-11-05 08:51:00
4:51 AM,52.0,43.0,71,29.96,10.0,NNE,11.5,21.9,N/A,,Overcast,20,2012-11-05 09:51:00
5:51 AM,52.0,42.1,69,29.98,10.0,NNE,9.2,20.7,N/A,,Overcast,30,2012-11-05 10:51:00
6:51 AM,52.0,43.0,71,29.99,10.0,NNE,11.5,20.7,N/A,,Overcast,30,2012-11-05 11:51:00
7:51 AM,51.1,42.1,71,30.02,10.0,NNE,9.2,20.7,N/A,,Overcast,20,2012-11-05 12:51:00
8:51 AM,51.1,41.0,68,30.04,10.0,NNE,9.2,19.6,N/A,,Overcast,20,2012-11-05 13:51:00
9:51 AM,52.0,42.1,69,30.04,10.0,NNE,10.4,20.7,N/A,,Clear,20,2012-11-05 14:51:00
10:51 AM,53.1,42.1,66,30.04,10.0,North,10.4,19.6,N/A,,Clear,10,2012-11-05 15:51:00
11:51 AM,52.0,41.0,66,30.03,10.0,NNE,11.5,18.4,N/A,,Clear,20,2012-11-05 16:51:00
12:51 PM,52.0,41.0,66,30.02,10.0,NNE,9.2,18.4,N/A,,Clear,20,2012-11-05 17:51:00
1:51 PM,52.0,37.9,59,30.01,10.0,NNE,11.5,21.9,N/A,,Clear,20,2012-11-05 18:51:00
2:51 PM,51.1,37.0,59,30.02,10.0,NNE,10.4,20.7,N/A,,Clear,30,2012-11-05 19:51:00
3:51 PM,50.0,37.0,61,30.04,10.0,North,10.4,21.9,N/A,,Partly Cloudy,10,2012-11-05 20:51:00
4:51 PM,48.9,37.0,64,30.04,10.0,NNE,9.2,16.1,N/A,,Scattered Clouds,30,2012-11-05 21:51:00
5:10 PM,48.2,37.4,66,30.05,10.0,NNE,8.1,17.3,N/A,,Mostly Cloudy,30,2012-11-05 22:10:00
5:21 PM,48.2,37.4,66,30.05,10.0,NNE,8.1,18.4,N/A,,Scattered Clouds,30,2012-11-05 22:21:00
5:51 PM,48.0,37.0,66,30.06,10.0,NNE,9.2,16.1,N/A,,Clear,20,2012-11-05 22:51:00
6:49 PM,48.2,37.4,66,30.06,10.0,North,8.1,16.1,N/A,,Mostly Cloudy,10,2012-11-05 23:49:00
6:51 PM,48.0,37.9,68,30.06,10.0,NNE,8.1,16.1,N/A,,Mostly Cloudy,30,2012-11-05 23:51:00
7:02 PM,48.2,37.4,66,30.07,10.0,NNE,9.2,20.7,N/A,,Scattered Clouds,30,2012-11-06 00:02:00
7:51 PM,48.0,37.9,68,30.08,10.0,NNE,8.1,16.1,N/A,,Scattered Clouds,30,2012-11-06 00:51:00
7:59 PM,48.2,37.4,66,30.08,10.0,NNE,9.2,-,N/A,,Mostly Cloudy,30,2012-11-06 00:59:00
8:51 PM,48.9,39.0,69,30.10,10.0,NNE,8.1,19.6,N/A,,Overcast,30,2012-11-06 01:51:00
9:07 PM,48.2,39.2,71,30.10,10.0,NNE,8.1,16.1,N/A,,Overcast,20,2012-11-06 02:07:00
9:51 PM,48.0,37.9,68,30.10,10.0,Variable,6.9,18.4,N/A,,Mostly Cloudy,0,2012-11-06 02:51:00
10:51 PM,48.0,37.9,68,30.09,10.0,Variable,6.9,-,N/A,,Scattered Clouds,0,2012-11-06 03:51:00
11:51 PM,48.0,39.0,71,30.08,10.0,Variable,6.9,-,N/A,,Partly Cloudy,0,2012-11-06 04:51:00